| time (UTC) | temp C | wind direction | speed KPH | gust KPH | rain 1hr cm | rain 24hr cm | rain mn cm | humidity % | barometer mb |
| 20260905225630 | 22 | 216 | 3.2 | 4.8 | 0.00 | 0.00 | 0.00 | 1 | 1017.6 |
| 20260905224628 | 22 | 38 | 3.2 | 6.4 | 0.00 | 0.00 | 0.00 | 1 | 1017.7 |
| 20260905223622 | 22 | 103 | 3.2 | 4.8 | 0.00 | 0.00 | 0.00 | 1 | 1017.7 |
| 20260905222619 | 21 | 60 | 6.4 | 11.3 | 0.00 | 0.00 | 0.00 | 1 | 1017.7 |
| 20260905221635 | 22 | 302 | 4.8 | 8.0 | 0.00 | 0.00 | 0.00 | 1 | 1018.0 |
| 20260905220631 | 21 | 313 | 4.8 | 9.7 | 0.00 | 0.00 | 0.00 | 1 | 1018.0 |
| 20260905215627 | 21 | 110 | 3.2 | 3.2 | 0.00 | 0.00 | 0.00 | 1 | 1018.0 |
| 20260905214623 | 22 | 316 | 9.7 | 16.1 | 0.00 | 0.00 | 0.00 | 1 | 1018.1 |
| 20260905213639 | 21 | 312 | 8.0 | 12.9 | 0.00 | 0.00 | 0.00 | 1 | 1018.3 |
| 20260905212636 | 21 | 32 | 4.8 | 8.0 | 0.00 | 0.00 | 0.00 | 1 | 1018.3 |
| 20260905211632 | 21 | 40 | 6.4 | 9.7 | 0.00 | 0.00 | 0.00 | 1 | 1018.5 |
| 20260905210628 | 21 | 238 | 4.8 | 8.0 | 0.00 | 0.00 | 0.00 | 1 | 1018.7 |
| 20260905205624 | 21 | 311 | 4.8 | 6.4 | 0.00 | 0.00 | 0.00 | 1 | 1018.6 |
| 20260905204700 | 21 | 2 | 9.7 | 14.5 | 0.00 | 0.00 | 0.00 | 1 | 1018.5 |
| 20260905203616 | 20 | 338 | 8.0 | 14.5 | 0.00 | 0.00 | 0.00 | 1 | 1018.5 |
| 20260905202713 | 20 | 27 | 6.4 | 9.7 | 0.00 | 0.00 | 0.00 | 1 | 1018.6 |
| 20260905201628 | 21 | 341 | 9.7 | 17.7 | 0.00 | 0.00 | 0.00 | 1 | 1018.6 |
| 20260905200649 | 20 | 320 | 9.7 | 17.7 | 0.00 | 0.00 | 0.00 | 1 | 1018.7 |
| 20260905195641 | 20 | 330 | 8.0 | 12.9 | 0.00 | 0.00 | 0.00 | 1 | 1018.9 |
| 20260905194617 | 20 | 336 | 14.5 | 20.9 | 0.00 | 0.00 | 0.00 | 1 | 1018.9 |
| 20260905193653 | 20 | 317 | 11.3 | 12.9 | 0.00 | 0.00 | 0.00 | 1 | 1018.9 |
| 20260905192629 | 20 | 357 | 17.7 | 24.1 | 0.00 | 0.00 | 0.00 | 1 | 1018.7 |
| 20260905191625 | 20 | 338 | 14.5 | 17.7 | 0.00 | 0.00 | 0.00 | 1 | 1019.0 |
| 20260905190621 | 19 | 355 | 12.9 | 19.3 | 0.00 | 0.00 | 0.00 | 1 | 1019.0 |
| 20260905185617 | 19 | 289 | 8.0 | 11.3 | 0.00 | 0.00 | 0.00 | 1 | 1019.2 |
| 20260905184654 | 19 | 321 | 9.7 | 16.1 | 0.00 | 0.00 | 0.00 | 1 | 1019.0 |
| 20260905183630 | 18 | 282 | 6.4 | 8.0 | 0.00 | 0.00 | 0.00 | 1 | 1019.3 |
| 20260905182627 | 18 | 358 | 12.9 | 20.9 | 0.00 | 0.00 | 0.00 | 1 | 1019.3 |
| 20260905181622 | 17 | 327 | 3.2 | 6.4 | 0.00 | 0.00 | 0.00 | 1 | 1019.4 |
| 20260905180639 | 18 | 358 | 8.0 | 14.5 | 0.00 | 0.00 | 0.00 | 1 | 1019.6 |
| 20260905175634 | 17 | 352 | 9.7 | 12.9 | 0.00 | 0.00 | 0.00 | 1 | 1019.6 |
| 20260905174710 | 17 | 22 | 4.8 | 9.7 | 0.00 | 0.00 | 0.00 | 1 | 1019.8 |
| 20260905173626 | 17 | 6 | 9.7 | 14.5 | 0.00 | 0.00 | 0.00 | 1 | 1019.8 |
| 20260905172622 | 17 | 11 | 9.7 | 12.9 | 0.00 | 0.00 | 0.00 | 1 | 1019.7 |
| 20260905171618 | 17 | 8 | 9.7 | 14.5 | 0.00 | 0.00 | 0.00 | 1 | 1019.7 |
| 20260905170635 | 16 | 357 | 12.9 | 16.1 | 0.00 | 0.00 | 0.00 | 1 | 1019.7 |
| 20260905165631 | 16 | 3 | 8.0 | 9.7 | 0.00 | 0.00 | 0.00 | 1 | 1019.7 |
| 20260905164627 | 17 | 18 | 8.0 | 9.7 | 0.00 | 0.00 | 0.00 | 1 | 1019.7 |
| 20260905163623 | 16 | 360 | 11.3 | 14.5 | 0.00 | 0.00 | 0.00 | 1 | 1019.3 |
| 20260905162620 | 16 | 360 | 12.9 | 16.1 | 0.00 | 0.00 | 0.00 | 1 | 1019.2 |
| 20260905161636 | 16 | 352 | 11.3 | 16.1 | 0.00 | 0.00 | 0.00 | 1 | 1019.1 |
| 20260905160632 | 15 | 327 | 12.9 | 16.1 | 0.00 | 0.00 | 0.00 | 1 | 1019.0 |
| 20260905155628 | 15 | 314 | 11.3 | 14.5 | 0.00 | 0.00 | 0.00 | 1 | 1019.2 |
| 20260905154624 | 15 | 335 | 11.3 | 14.5 | 0.00 | 0.00 | 0.00 | 1 | 1019.2 |
| 20260905153620 | 15 | 326 | 9.7 | 11.3 | 0.00 | 0.00 | 0.00 | 1 | 1019.2 |
| 20260905152617 | 15 | 343 | 8.0 | 9.7 | 0.00 | 0.00 | 0.00 | 1 | 1019.4 |
| 20260905151653 | 15 | 319 | 6.4 | 8.0 | 0.00 | 0.00 | 0.00 | 1 | 1019.5 |
| 20260905150649 | 14 | 263 | 3.2 | 3.2 | 0.00 | 0.00 | 0.00 | 1 | 1019.5 |
| 20260905145625 | 14 | 347 | 6.4 | 8.0 | 0.00 | 0.00 | 0.00 | 1 | 1019.5 |
| 20260905144621 | 13 | 317 | 3.2 | 6.4 | 0.00 | 0.00 | 0.00 | 1 | 1019.4 |
| 20260905143618 | 13 | 348 | 3.2 | 4.8 | 0.00 | 0.00 | 0.00 | 1 | 1019.4 |
| 20260905142634 | 13 | 261 | 3.2 | 6.4 | 0.00 | 0.00 | 0.00 | 1 | 1019.5 |
| 20260905141630 | 13 | 328 | 3.2 | 4.8 | 0.00 | 0.00 | 0.00 | 1 | 1019.2 |
| 20260905140626 | 12 | 340 | 1.6 | 4.8 | 0.00 | 0.00 | 0.00 | 1 | 1019.2 |
| 20260905135622 | 12 | 0.0 | 3.2 | 0.00 | 0.00 | 0.00 | 1 | 1019.1 | |
| 20260905134618 | 12 | 345 | 1.6 | 4.8 | 0.00 | 0.00 | 0.00 | 1 | 1019.0 |
| 20260905133735 | 13 | 93 | 0.0 | 3.2 | 0.00 | 0.00 | 0.00 | 1 | 1018.9 |
| 20260905132651 | 13 | 73 | 3.2 | 4.8 | 0.00 | 0.00 | 0.00 | 1 | 1018.8 |
| 20260905131627 | 13 | 0.0 | 3.2 | 0.00 | 0.00 | 0.00 | 1 | 1018.7 | |
| 20260905130643 | 13 | 0.0 | 3.2 | 0.00 | 0.00 | 0.00 | 1 | 1018.6 | |
| 20260905125619 | 13 | 205 | 4.8 | 8.0 | 0.00 | 0.00 | 0.00 | 1 | 1018.6 |
| 20260905124618 | 12 | 222 | 3.2 | 3.2 | 0.00 | 0.00 | 0.00 | 1 | 1018.4 |
| 20260905123633 | 12 | 266 | 3.2 | 4.8 | 0.00 | 0.00 | 0.00 | 1 | 1018.1 |
| 20260905122628 | 13 | 16 | 3.2 | 3.2 | 0.00 | 0.00 | 0.00 | 1 | 1018.4 |
| 20260905121624 | 12 | 199 | 1.6 | 3.2 | 0.00 | 0.00 | 0.00 | 1 | 1018.3 |
| 20260905120620 | 13 | 316 | 4.8 | 6.4 | 0.00 | 0.00 | 0.00 | 1 | 1018.1 |
| 20260905115616 | 12 | 336 | 4.8 | 6.4 | 0.00 | 0.00 | 0.00 | 1 | 1018.0 |
| 20260905114652 | 13 | 316 | 4.8 | 6.4 | 0.00 | 0.00 | 0.00 | 1 | 1017.8 |
| 20260905113648 | 13 | 338 | 8.0 | 9.7 | 0.00 | 0.00 | 0.00 | 1 | 1017.8 |
| 20260905112624 | 13 | 345 | 4.8 | 8.0 | 0.00 | 0.00 | 0.00 | 1 | 1018.0 |
| 20260905111621 | 13 | 334 | 6.4 | 9.7 | 0.00 | 0.00 | 0.00 | 1 | 1017.8 |
| 20260905110617 | 14 | 338 | 6.4 | 9.7 | 0.00 | 0.00 | 0.00 | 1 | 1017.7 |
| 20260905105633 | 14 | 327 | 9.7 | 11.3 | 0.00 | 0.00 | 0.00 | 1 | 1017.8 |
| 20260905104629 | 14 | 333 | 6.4 | 9.7 | 0.00 | 0.00 | 0.00 | 1 | 1017.8 |
| 20260905103625 | 13 | 342 | 0.0 | 1.6 | 0.00 | 0.00 | 0.00 | 1 | 1017.9 |
| 20260905102621 | 13 | 216 | 3.2 | 3.2 | 0.00 | 0.00 | 0.00 | 1 | 1018.0 |
| 20260905101617 | 13 | 303 | 4.8 | 6.4 | 0.00 | 0.00 | 0.00 | 1 | 1017.8 |
| 20260905100633 | 13 | 325 | 4.8 | 6.4 | 0.00 | 0.00 | 0.00 | 1 | 1017.7 |
| 20260905095630 | 13 | 327 | 6.4 | 8.0 | 0.00 | 0.00 | 0.00 | 1 | 1017.9 |
| 20260905094626 | 13 | 338 | 6.4 | 8.0 | 0.00 | 0.00 | 0.00 | 1 | 1017.8 |
| 20260905093622 | 13 | 330 | 4.8 | 6.4 | 0.00 | 0.00 | 0.00 | 1 | 1017.8 |
| 20260905092618 | 13 | 328 | 6.4 | 8.0 | 0.00 | 0.00 | 0.00 | 1 | 1017.8 |
| 20260905091654 | 13 | 342 | 8.0 | 11.3 | 0.00 | 0.00 | 0.00 | 1 | 1017.8 |
| 20260905090631 | 13 | 346 | 4.8 | 6.4 | 0.00 | 0.00 | 0.00 | 1 | 1017.6 |
| 20260905085626 | 13 | 333 | 4.8 | 6.4 | 0.00 | 0.00 | 0.00 | 1 | 1017.7 |
| 20260905084622 | 13 | 0 | 1.6 | 3.2 | 0.00 | 0.00 | 0.00 | 1 | 1017.4 |
| 20260905083639 | 13 | 0.0 | 0.0 | 0.00 | 0.00 | 0.00 | 1 | 1017.6 | |
| 20260905082715 | 13 | 301 | 3.2 | 4.8 | 0.00 | 0.00 | 0.00 | 1 | 1017.4 |
| 20260905081651 | 13 | 331 | 4.8 | 8.0 | 0.00 | 0.00 | 0.00 | 1 | 1017.2 |
| 20260905080647 | 14 | 346 | 4.8 | 6.4 | 0.00 | 0.00 | 0.00 | 1 | 1017.2 |
| 20260905075623 | 13 | 332 | 8.0 | 11.3 | 0.00 | 0.00 | 0.00 | 1 | 1017.2 |
| 20260905074619 | 13 | 309 | 4.8 | 6.4 | 0.00 | 0.00 | 0.00 | 1 | 1017.2 |
| 20260905073655 | 13 | 344 | 3.2 | 4.8 | 0.00 | 0.00 | 0.00 | 1 | 1016.9 |
| 20260905072631 | 13 | 345 | 6.4 | 9.7 | 0.00 | 0.00 | 0.00 | 1 | 1017.0 |
| 20260905071628 | 13 | 341 | 4.8 | 6.4 | 0.00 | 0.00 | 0.00 | 1 | 1016.9 |
| 20260905070624 | 13 | 327 | 8.0 | 9.7 | 0.00 | 0.00 | 0.00 | 1 | 1017.1 |
| 20260905065620 | 13 | 343 | 8.0 | 9.7 | 0.00 | 0.00 | 0.00 | 1 | 1017.0 |
| 20260905064718 | 13 | 326 | 6.4 | 8.0 | 0.00 | 0.00 | 0.00 | 1 | 1016.8 |
| 20260905063633 | 13 | 343 | 8.0 | 9.7 | 0.00 | 0.00 | 0.00 | 1 | 1016.4 |
| 20260905062629 | 13 | 329 | 9.7 | 11.3 | 0.00 | 0.00 | 0.00 | 1 | 1016.6 |
| 20260905061625 | 13 | 332 | 11.3 | 14.5 | 0.00 | 0.00 | 0.00 | 1 | 1016.4 |
| 20260905060621 | 13 | 328 | 6.4 | 11.3 | 0.00 | 0.00 | 0.00 | 1 | 1016.7 |
| 20260905055617 | 13 | 310 | 4.8 | 6.4 | 0.00 | 0.00 | 0.00 | 1 | 1016.4 |
| 20260905054634 | 13 | 322 | 6.4 | 8.0 | 0.00 | 0.00 | 0.00 | 1 | 1016.3 |
| 20260905053630 | 14 | 336 | 6.4 | 9.7 | 0.00 | 0.00 | 0.00 | 1 | 1016.5 |
| 20260905052646 | 15 | 331 | 6.4 | 9.7 | 0.00 | 0.00 | 0.00 | 1 | 1016.3 |
| 20260905051642 | 15 | 338 | 8.0 | 8.0 | 0.00 | 0.00 | 0.00 | 1 | 1016.4 |
| 20260905050618 | 15 | 329 | 6.4 | 8.0 | 0.00 | 0.00 | 0.00 | 1 | 1016.5 |
| 20260905045634 | 15 | 308 | 6.4 | 8.0 | 0.00 | 0.00 | 0.00 | 1 | 1016.5 |
| 20260905044631 | 15 | 338 | 14.5 | 16.1 | 0.00 | 0.00 | 0.00 | 1 | 1016.3 |
| 20260905043626 | 15 | 336 | 9.7 | 12.9 | 0.00 | 0.00 | 0.00 | 1 | 1016.1 |
| 20260905042622 | 16 | 339 | 8.0 | 9.7 | 0.00 | 0.00 | 0.00 | 1 | 1016.1 |
| 20260905041618 | 16 | 352 | 8.0 | 9.7 | 0.00 | 0.00 | 0.00 | 1 | 1016.2 |
| 20260905040635 | 16 | 356 | 6.4 | 6.4 | 0.00 | 0.00 | 0.00 | 1 | 1016.3 |
| 20260905035631 | 16 | 329 | 9.7 | 11.3 | 0.00 | 0.00 | 0.00 | 1 | 1016.2 |
| 20260905034627 | 17 | 339 | 9.7 | 14.5 | 0.00 | 0.00 | 0.00 | 1 | 1016.2 |
| 20260905033623 | 18 | 336 | 4.8 | 6.4 | 0.00 | 0.00 | 0.00 | 1 | 1016.0 |
| 20260905032619 | 18 | 315 | 3.2 | 4.8 | 0.00 | 0.00 | 0.00 | 1 | 1016.0 |
| 20260905031636 | 19 | 296 | 4.8 | 6.4 | 0.00 | 0.00 | 0.00 | 1 | 1015.9 |
| 20260905030631 | 18 | 294 | 4.8 | 4.8 | 0.00 | 0.00 | 0.00 | 1 | 1015.9 |
| 20260905025628 | 19 | 328 | 3.2 | 3.2 | 0.00 | 0.00 | 0.00 | 1 | 1015.6 |
| 20260905024644 | 18 | 324 | 3.2 | 4.8 | 0.00 | 0.00 | 0.00 | 1 | 1015.8 |
| 20260905023620 | 18 | 291 | 1.6 | 3.2 | 0.00 | 0.00 | 0.00 | 1 | 1015.4 |
| 20260905022636 | 19 | 292 | 1.6 | 3.2 | 0.00 | 0.00 | 0.00 | 1 | 1015.6 |
| 20260905021632 | 20 | 350 | 3.2 | 3.2 | 0.00 | 0.00 | 0.00 | 1 | 1015.7 |
| 20260905020628 | 20 | 0 | 1.6 | 3.2 | 0.00 | 0.00 | 0.00 | 1 | 1015.6 |
| 20260905015624 | 20 | 34 | 3.2 | 4.8 | 0.00 | 0.00 | 0.00 | 1 | 1015.6 |
| 20260905014621 | 21 | 39 | 3.2 | 6.4 | 0.00 | 0.00 | 0.00 | 1 | 1015.5 |
| 20260905013617 | 21 | 66 | 4.8 | 6.4 | 0.00 | 0.00 | 0.00 | 1 | 1015.4 |
| 20260905012633 | 21 | 57 | 1.6 | 3.2 | 0.00 | 0.00 | 0.00 | 1 | 1015.3 |
| 20260905011629 | 21 | 23 | 3.2 | 4.8 | 0.00 | 0.00 | 0.00 | 1 | 1015.3 |
| 20260905010625 | 21 | 51 | 6.4 | 8.0 | 0.00 | 0.00 | 0.00 | 1 | 1015.2 |
| 20260905005621 | 21 | 48 | 6.4 | 8.0 | 0.00 | 0.00 | 0.00 | 1 | 1015.2 |
| 20260905004617 | 21 | 50 | 8.0 | 9.7 | 0.00 | 0.00 | 0.00 | 1 | 1015.2 |
| 20260905003634 | 22 | 26 | 6.4 | 8.0 | 0.00 | 0.00 | 0.00 | 1 | 1015.2 |
| 20260905002630 | 21 | 49 | 0.0 | 3.2 | 0.00 | 0.00 | 0.00 | 1 | 1015.1 |
| 20260905001626 | 21 | 42 | 4.8 | 8.0 | 0.00 | 0.00 | 0.00 | 1 | 1015.0 |
| 20260905000622 | 21 | 64 | 3.2 | 6.4 | 0.00 | 0.00 | 0.00 | 1 | 1015.1 |
| 20260904235618 | 22 | 86 | 1.6 | 4.8 | 0.00 | 0.00 | 0.00 | 1 | 1015.1 |
| 20260904234634 | 22 | 125 | 3.2 | 9.7 | 0.00 | 0.00 | 0.00 | 1 | 1015.1 |
| 20260904233631 | 22 | 90 | 6.4 | 8.0 | 0.00 | 0.00 | 0.00 | 1 | 1015.0 |
| 20260904232631 | 22 | 88 | 3.2 | 9.7 | 0.00 | 0.00 | 0.00 | 1 | 1015.1 |
| 20260904231643 | 22 | 87 | 8.0 | 9.7 | 0.00 | 0.00 | 0.00 | 1 | 1015.2 |
| 20260904230620 | 22 | 50 | 6.4 | 14.5 | 0.00 | 0.00 | 0.00 | 1 | 1015.2 |